Weather History for Nebraska City, NE

Change the Weather History Date:

Thursday, February 7, 2013

  Actual Average (KSDA) Record (KSDA)
Temperature  
Mean Temperature 38 °F -  
Max Temperature 46 °F 32 °F 62 °F (2009)
Min Temperature 30 °F 11 °F -19 °F (1979)
Degree Days  
Heating Degree Days 27    
Moisture  
Dew Point 31 °F    
Average Humidity 82    
Maximum Humidity 97    
Minimum Humidity 73    
Precipitation  
Precipitation 0.00 in - - ()
Sea Level Pressure  
Sea Level Pressure 30.03 in    
Wind  
Wind Speed 9 mph (North)    
Max Wind Speed 26 mph    
Max Gust Speed 32 mph    
Visibility 7 miles    
Events Thunderstorm    
Averages and records for this station are not official NWS values.
T = Trace of Precipitation, MM = Missing Value Source: NWS Daily Summary

Daily Weather History Graph

Daily Weather History Graph

Search for Another Location

Airport:

Trip Planner

Search our weather history database for the weather conditions in past years. The results will help you decide how hot, cold, wet, or windy it might be!

Date:

Astronomy

Feb. 07, 2013 Rise Set
Actual Time 7:26 AM CST 5:49 PM CST
Civil Twilight 6:58 AM CST 6:17 PM CST
Nautical Twilight 6:25 AM CST 6:49 PM CST
Astronomical Twilight 5:53 AM CST 7:21 PM CST
Moon 5:07 AM CST (2/7) 3:14 PM CST (2/7)
Length of Visible Light 11h 19m
Length of Day
10h 22m
Waning Crescent, 9% of the Moon is Illuminated
Feb 7
Waning Crescent
Feb 10
New
Feb 17
First Quarter
Feb 25
Full
Mar 4
Last Quarter

Hourly Weather History & Observations

Time (CST) Temp. Windchill Dew Point Humidity Pressure Visibility Wind Dir Wind Speed Gust Speed Precip Events Conditions
12:15 AM 46.9 °F - 41.9 °F 83% 29.87 in 10.0 mi Calm Calm - N/A   Overcast
12:35 AM 46.4 °F - 41.4 °F 83% 29.87 in 10.0 mi Calm Calm - N/A Thunderstorm Overcast
12:55 AM 44.8 °F - 41.0 °F 87% 29.87 in 10.0 mi Calm Calm - N/A   Overcast
1:15 AM 45.7 °F - 42.3 °F 88% 29.86 in 10.0 mi Calm Calm - N/A   Overcast
1:35 AM 45.1 °F - 41.4 °F 87% 29.87 in 10.0 mi Calm Calm - N/A   Overcast
1:55 AM 45.3 °F - 43.0 °F 92% 29.87 in 10.0 mi Calm Calm - N/A   Overcast
2:15 AM 44.6 °F - 43.2 °F 95% 29.87 in 10.0 mi Calm Calm - N/A   Overcast
2:35 AM 42.3 °F - 41.0 °F 95% 29.86 in 7.0 mi Calm Calm - N/A   Mostly Cloudy
2:55 AM 41.2 °F - 40.3 °F 97% 29.86 in 7.0 mi Calm Calm - N/A   Mostly Cloudy
3:15 AM 42.1 °F - 39.6 °F 91% 29.86 in 10.0 mi Calm Calm - N/A   Overcast
3:35 AM 41.7 °F 36.1 °F 37.9 °F 86% 29.86 in 10.0 mi NNW 9.2 mph - N/A   Mostly Cloudy
3:55 AM 40.3 °F 33.4 °F 35.8 °F 84% 29.86 in 10.0 mi NNW 11.5 mph - N/A   Scattered Clouds
4:15 AM 39.7 °F 32.3 °F 35.4 °F 85% 29.86 in 10.0 mi NNW 12.7 mph 17.3 mph N/A   Mostly Cloudy
4:35 AM 39.6 °F 34.7 °F 34.9 °F 83% 29.88 in 10.0 mi NNW 6.9 mph - N/A   Overcast
4:55 AM 39.4 °F 31.1 °F 34.2 °F 82% 29.88 in 10.0 mi NNW 15.0 mph 19.6 mph N/A   Mostly Cloudy
5:15 AM 39.2 °F 30.8 °F 34.2 °F 82% 29.89 in 10.0 mi North 15.0 mph 18.4 mph N/A   Scattered Clouds
5:35 AM 38.5 °F 30.3 °F 33.8 °F 83% 29.89 in 10.0 mi North 13.8 mph - N/A   Clear
5:55 AM 38.5 °F 29.6 °F 33.1 °F 81% 29.89 in 10.0 mi NNW 16.1 mph - N/A   Mostly Cloudy
6:15 AM 37.9 °F 29.2 °F 32.5 °F 81% 29.90 in 10.0 mi NNW 15.0 mph - N/A   Mostly Cloudy
6:35 AM 37.6 °F 29.6 °F 32.2 °F 81% 29.92 in 10.0 mi North 12.7 mph - N/A   Overcast
6:55 AM 37.6 °F 31.0 °F 32.0 °F 80% 29.92 in 10.0 mi North 9.2 mph - N/A   Overcast
7:15 AM 37.6 °F - 32.0 °F 80% 29.94 in 10.0 mi Calm Calm - N/A   Overcast
7:35 AM 37.4 °F 30.8 °F 32.0 °F 81% 29.95 in 10.0 mi NNW 9.2 mph - N/A   Overcast
7:55 AM 37.0 °F 29.8 °F 32.0 °F 82% 29.96 in 10.0 mi North 10.4 mph - N/A   Overcast
8:15 AM 36.5 °F 27.4 °F 32.0 °F 84% 29.97 in 10.0 mi NNW 15.0 mph - N/A   Overcast
8:35 AM 36.1 °F 26.9 °F 32.0 °F 85% 29.99 in 10.0 mi North 15.0 mph 21.9 mph N/A   Scattered Clouds
8:55 AM 36.1 °F 28.2 °F 32.0 °F 85% 29.99 in 10.0 mi North 11.5 mph - N/A   Clear
9:15 AM 36.0 °F 26.3 °F 32.0 °F 86% 30.00 in 10.0 mi North 16.1 mph - N/A   Scattered Clouds
9:35 AM 35.8 °F 26.9 °F 32.0 °F 86% 30.01 in 10.0 mi North 13.8 mph - N/A   Mostly Cloudy
9:55 AM 35.8 °F 33.0 °F 32.0 °F 86% 30.01 in 7.0 mi North 3.5 mph 10.4 mph N/A   Overcast
10:15 AM 36.0 °F 25.6 °F 32.0 °F 86% 30.02 in 7.0 mi North 18.4 mph 21.9 mph N/A   Overcast
10:35 AM 35.8 °F 26.1 °F 32.0 °F 86% 30.03 in 7.0 mi North 16.1 mph - N/A   Overcast
10:55 AM 36.9 °F 26.8 °F 32.7 °F 85% 30.03 in 7.0 mi North 18.4 mph 24.2 mph N/A   Overcast
11:15 AM 36.9 °F 27.5 °F 32.0 °F 83% 30.03 in 7.0 mi North 16.1 mph 28.8 mph N/A   Overcast
11:35 AM 37.4 °F 26.9 °F 32.2 °F 81% 30.04 in 5.0 mi North 20.7 mph 26.5 mph N/A   Haze
11:55 AM 38.7 °F 28.0 °F 32.2 °F 78% 30.04 in 5.0 mi NNW 23.0 mph 27.6 mph N/A   Haze
12:15 PM 40.1 °F 29.2 °F 32.2 °F 73% 30.03 in 5.0 mi NNW 26.5 mph 32.2 mph N/A   Haze
12:35 PM 39.4 °F 30.7 °F 32.0 °F 75% 30.04 in 4.0 mi North 16.1 mph 28.8 mph N/A   Haze
12:55 PM 38.7 °F 28.8 °F 32.0 °F 77% 30.04 in 3.0 mi North 19.6 mph 27.6 mph N/A   Haze
1:15 PM 38.7 °F 28.3 °F 31.6 °F 76% 30.04 in 3.0 mi NNW 21.9 mph 29.9 mph N/A   Haze
1:35 PM 38.1 °F 27.9 °F 31.5 °F 77% 30.04 in 2.5 mi NNW 20.7 mph 26.5 mph N/A   Haze
1:55 PM 37.2 °F 27.6 °F 31.3 °F 79% 30.05 in 2.5 mi NNW 17.3 mph 24.2 mph N/A   Haze
2:15 PM 35.6 °F 26.2 °F 30.6 °F 82% 30.05 in 3.0 mi NNW 15.0 mph 23.0 mph N/A   Haze
2:35 PM 34.9 °F 24.2 °F 30.0 °F 82% 30.06 in 4.0 mi NNW 18.4 mph 23.0 mph N/A   Haze
2:55 PM 34.7 °F 24.7 °F 29.5 °F 81% 30.06 in 5.0 mi North 16.1 mph 26.5 mph N/A   Haze
3:15 PM 34.3 °F 23.9 °F 29.3 °F 82% 30.07 in 5.0 mi NNW 17.3 mph 25.3 mph N/A   Haze
3:35 PM 34.2 °F 23.6 °F 29.1 °F 82% 30.08 in 5.0 mi NNW 17.3 mph 21.9 mph N/A   Haze
3:55 PM 33.8 °F 23.2 °F 28.4 °F 81% 30.08 in 7.0 mi North 17.3 mph 25.3 mph N/A   Overcast
4:15 PM 33.8 °F 24.8 °F 28.6 °F 81% 30.09 in 5.0 mi North 12.7 mph 18.4 mph N/A   Haze
4:35 PM 33.4 °F 22.7 °F 28.0 °F 81% 30.10 in 5.0 mi North 17.3 mph 24.2 mph N/A   Haze
4:55 PM 33.1 °F 22.6 °F 27.9 °F 81% 30.11 in 5.0 mi North 16.1 mph 24.2 mph N/A   Haze
5:15 PM 32.9 °F 21.6 °F 27.5 °F 81% 30.11 in 7.0 mi North 18.4 mph 23.0 mph N/A   Overcast
5:35 PM 32.9 °F 25.3 °F 27.5 °F 81% 30.12 in 7.0 mi North 9.2 mph - N/A   Overcast
5:55 PM 32.5 °F 23.2 °F 27.3 °F 81% 30.13 in 7.0 mi North 12.7 mph - N/A   Overcast
6:15 PM 32.2 °F 23.2 °F 26.6 °F 80% 30.14 in 7.0 mi North 11.5 mph 18.4 mph N/A   Overcast
6:35 PM 32.0 °F 23.0 °F 26.6 °F 80% 30.16 in 7.0 mi North 11.5 mph - N/A   Overcast
6:55 PM 32.0 °F 22.1 °F 26.2 °F 79% 30.16 in 5.0 mi North 13.8 mph - N/A   Haze
7:15 PM 32.0 °F 23.6 °F 26.1 °F 79% 30.17 in 5.0 mi North 10.4 mph - N/A   Haze
7:35 PM 31.8 °F 22.3 °F 25.5 °F 78% 30.18 in 7.0 mi North 12.7 mph 17.3 mph N/A   Overcast
7:55 PM 31.8 °F 24.6 °F 25.7 °F 78% 30.18 in 7.0 mi North 8.1 mph - N/A   Overcast
8:15 PM 31.8 °F 22.3 °F 26.1 °F 79% 30.19 in 7.0 mi NNE 12.7 mph - N/A   Overcast
8:35 PM 31.5 °F 22.3 °F 25.3 °F 78% 30.19 in 7.0 mi North 11.5 mph - N/A   Overcast
8:55 PM 31.5 °F 20.9 °F 25.3 °F 78% 30.20 in 7.0 mi North 15.0 mph - N/A   Overcast
9:15 PM 31.5 °F 20.9 °F 25.5 °F 79% 30.20 in 7.0 mi NNE 15.0 mph - N/A   Overcast
9:35 PM 31.1 °F 20.1 °F 25.0 °F 78% 30.20 in 5.0 mi North 16.1 mph - N/A   Haze
9:55 PM 31.1 °F 21.4 °F 25.3 °F 79% 30.21 in 5.0 mi North 12.7 mph - N/A   Haze
10:15 PM 31.1 °F 24.5 °F 25.5 °F 80% 30.22 in 7.0 mi North 6.9 mph - N/A   Overcast
10:35 PM 31.1 °F 22.4 °F 25.3 °F 79% 30.22 in 7.0 mi North 10.4 mph - N/A   Overcast
10:55 PM 30.9 °F 21.7 °F 24.8 °F 78% 30.23 in 7.0 mi NNE 11.5 mph - N/A   Overcast
11:15 PM 30.7 °F 21.4 °F 24.8 °F 79% 30.23 in 7.0 mi NNE 11.5 mph - N/A   Overcast
11:35 PM 30.6 °F 21.8 °F 24.8 °F 79% 30.23 in 7.0 mi NNE 10.4 mph - N/A   Overcast
11:55 PM 30.2 °F 26.7 °F 24.8 °F 80% 30.24 in 7.0 mi NNE 3.5 mph - N/A   Overcast